[[{"header":{"parameterUnit":"m.s-1","parameterCategory":1,"la1":30.2991,"la2":30.254,"lo1":-89.0895,"lo2":-89.0444,"dy":0.0017,"dx":0.0017,"nx":28,"ny":28,"refTime":"2023-10-08T21:00:00:Z","depth":0,"parameterNumber":2,"parameterNumberName":"U-component_of_WINDS"},"data":[0,0,0,0,0,0,0,0,0,0,0,0,0,0,0,0,0,0,0,0,0,0,0,0,0,0,0,0,0,0,0,0,0,0,0,0,0,0,0,0,0,0,0,0,0,0,0,0,0,0,0,0,0,0,0,0,0,0,2.2494,2.2496,0,2.2639,2.264,2.2642,2.2653,2.2652,2.265,2.2649,2.2795,2.2801,2.2806,0,0,0,0,0,0,0,0,0,0,0,0,0,2.2224,2.2229,2.2494,2.2496,2.2498,2.2638,2.264,2.2642,2.2654,2.2652,2.265,2.2648,2.2794,2.28,2.2806,0,0,0,0,0,0,0,0,0,0,0,0,0,2.2352,2.2231,2.2494,2.252,2.2524,2.2638,2.264,2.2643,2.2654,2.2652,2.2649,2.2647,2.2792,2.2799,2.2807,2.2904,0,0,2.2832,2.2836,0,0,0,0,0,0,0,0,2.2345,2.2362,2.2514,2.2519,2.2523,2.2625,2.2599,2.273,2.2655,2.2605,2.2649,2.2646,2.2741,2.2753,2.2785,2.2911,2.2918,2.2833,2.2838,2.2841,2.2843,0,0,0,0,0,0,0,2.2336,2.2356,2.2551,2.2517,2.2522,2.2524,2.2539,2.2624,2.2684,2.2609,2.261,2.2627,2.2743,2.2777,2.2789,2.292,2.2832,2.284,2.2845,2.2848,2.3129,2.3131,0,0,0,0,0,0,2.2323,2.2349,2.2546,2.2555,2.2426,2.253,2.2548,2.2595,2.2683,2.2694,2.2629,2.2627,2.2765,2.2779,2.2794,2.2911,2.2841,2.2849,2.2853,2.3126,2.3129,2.3132,0,0,0,0,0,0,2.2317,2.234,2.2541,2.2452,2.2478,2.2538,2.259,2.2599,2.2634,2.2698,2.2709,2.2653,2.2763,2.2782,2.2876,2.2916,2.2852,2.286,2.3123,2.3127,2.3131,2.3147,0,0,0,0,0,0,2.2309,2.2338,2.2376,2.2453,2.2483,2.2622,2.2593,2.2604,2.2648,2.2647,2.2724,2.2735,2.2763,2.2864,2.2884,2.2926,2.2866,2.312,2.3125,2.313,2.3143,2.3151,2.3157,0,0,0,0,0,2.2299,2.2376,2.2378,2.2402,2.2532,2.2624,2.2641,2.2672,2.2651,2.2689,2.273,2.2732,2.2909,2.2873,2.2896,2.2941,2.3117,2.3124,2.3129,2.314,2.3149,2.3157,0,0,0,0,0,0,2.2303,2.2386,2.239,2.2494,2.2552,2.2626,2.2675,2.2682,2.2746,2.2743,2.2778,2.2796,2.2887,2.2924,2.2883,2.3038,2.3011,2.3021,2.3011,2.302,2.3027,2.3016,2.2873,0,0,0,0,0,2.2315,2.2384,2.2453,2.2537,2.2566,2.2616,2.2657,2.2676,2.2737,2.2761,2.2809,2.2868,2.2936,2.298,2.3047,2.3148,2.3164,2.319,2.3197,2.3203,2.3212,2.3265,2.3276,2.3152,2.3152,2.3152,0,0,2.2342,2.2397,2.2438,2.2539,2.2586,2.2655,2.2636,2.271,2.2761,2.2772,2.2863,2.29,2.2968,2.3065,2.311,2.3098,2.3249,2.3211,2.3215,2.322,2.3272,2.3284,2.3294,2.3156,2.3155,2.3154,0,0,2.2426,2.2475,2.255,2.2597,2.2668,2.2699,2.2717,2.279,2.2815,2.2906,2.2915,2.2976,2.3094,2.314,2.3179,2.3278,2.3281,2.3299,2.3336,2.3388,2.3397,2.3406,2.3439,2.345,2.3307,2.3307,2.3307,0,2.2451,2.2555,2.2587,2.266,2.2703,2.2716,2.2791,2.2835,2.2924,2.2953,2.2938,2.3084,2.3131,2.3237,2.3261,2.3293,2.3313,2.329,2.3394,2.3403,2.3411,2.3443,2.3455,2.3309,2.3308,2.3308,2.3308,0,2.2581,2.2653,2.2704,2.2789,2.2838,2.2911,2.2953,2.2999,2.3012,2.3045,2.3136,2.3193,2.3269,2.3296,2.3311,2.3404,2.3394,2.3386,2.3359,2.3424,2.3454,2.3467,2.3311,2.331,2.331,2.3309,0,0,2.2672,2.2772,2.279,2.2827,2.2905,2.296,2.3033,2.3108,2.3145,2.3206,2.3266,2.3364,2.3356,2.3401,2.342,2.3466,2.3537,2.3452,2.3454,2.3464,2.3639,2.3644,2.3657,2.3539,2.3542,2.3544,2.3633,0,2.2763,2.2894,2.2923,2.3034,2.3099,2.3111,2.3174,2.3228,2.326,2.3319,2.3354,2.3422,2.3408,2.3434,2.348,2.3518,2.3572,2.3513,2.3594,2.3597,2.3575,2.3674,2.3679,2.376,2.3645,2.3647,2.3649,0,2.2888,2.2949,2.3067,2.3133,2.3162,2.3218,2.3287,2.3344,2.3404,2.3424,2.3472,2.3487,2.3561,2.353,2.3632,2.359,2.3625,2.3649,2.3653,2.3661,2.3626,2.3682,2.3788,2.3799,2.3668,2.3666,2.3665,0,2.294,2.3052,2.3137,2.3168,2.3249,2.3287,2.3322,2.338,2.3422,2.3482,2.3509,2.3578,2.3615,2.3666,2.3698,2.3674,2.3796,2.3769,2.3813,2.3812,2.3837,2.3835,2.3948,2.3862,2.3862,2.3862,2.3862,0,2.3038,2.3109,2.3161,2.3212,2.3291,2.3323,2.34,2.3435,2.3486,2.3543,2.3558,2.3611,2.365,2.3709,2.3734,2.3812,2.3829,2.3846,2.3851,2.3844,2.3841,2.3866,2.3861,2.3865,2.3865,2.3864,2.3863,0,2.3109,2.3147,2.3239,2.3307,2.3325,2.338,2.3437,2.3487,2.3518,2.359,2.3609,2.3658,2.3727,2.3764,2.385,2.3867,2.3954,2.3958,2.3934,2.3936,2.3976,2.3971,2.4108,2.4127,2.403,2.4031,2.4032,0,2.3169,2.3223,2.3296,2.3335,2.337,2.3434,2.3476,2.3509,2.3552,2.3623,2.3663,2.3733,2.379,2.39,2.3942,2.4008,2.4012,2.4055,2.4022,2.4011,2.401,2.4005,2.401,2.4061,2.4061,2.4062,2.4063,0,2.3269,2.3284,2.3345,2.3412,2.3461,2.3516,2.3569,2.36,2.3641,2.3689,2.3759,2.3803,2.3891,2.3959,2.4027,2.4062,2.4068,2.4073,2.4086,2.4078,2.4061,2.4068,2.3948,2.407,2.4069,2.4068,2.4068,2.4068,2.3335,2.3383,2.344,2.3507,2.355,2.3599,2.3647,2.3684,2.3743,2.3817,2.3832,2.3906,2.3962,2.4054,2.409,2.4147,2.4138,2.4158,2.4163,2.4167,2.4167,2.4053,2.416,2.416,2.416,2.416,2.416,0,2.3434,2.3471,2.3532,2.3605,2.3656,2.3658,2.3717,2.3759,2.3824,2.3875,2.393,2.401,2.4075,2.4122,2.4188,2.4224,2.4229,2.424,2.4237,2.4244,2.4173,2.4153,2.4235,2.4235,2.4235,2.4235,2.4235,2.4235,2.3492,2.3572,2.3594,2.3694,2.373,2.3802,2.3835,2.3879,2.392,2.4008,2.4062,2.4092,2.4141,2.421,2.4269,2.4281,2.4303,2.4315,2.4326,2.4258,2.425,2.4242,2.4224,2.432,2.432,2.4393,2.4394,2.4394]},{"header":{"parameterUnit":"m.s-1","parameterCategory":1,"la1":30.2991,"la2":30.254,"lo1":-89.0895,"lo2":-89.0444,"dy":0.0017,"dx":0.0017,"nx":28,"ny":28,"refTime":"2023-10-08T21:00:00:Z","depth":0,"parameterNumber":3,"parameterNumberName":"V-component_of_WINDS"},"data":[0,0,0,0,0,0,0,0,0,0,0,0,0,0,0,0,0,0,0,0,0,0,0,0,0,0,0,0,0,0,0,0,0,0,0,0,0,0,0,0,0,0,0,0,0,0,0,0,0,0,0,0,0,0,0,0,0,0,-0.5356,-0.5357,0,-0.537,-0.5371,-0.5371,-0.5388,-0.5388,-0.5389,-0.5389,-0.5403,-0.5403,-0.5403,0,0,0,0,0,0,0,0,0,0,0,0,0,-0.5345,-0.5345,-0.5356,-0.5357,-0.5357,-0.537,-0.5371,-0.5371,-0.5388,-0.5388,-0.5389,-0.5389,-0.5403,-0.5403,-0.5403,0,0,0,0,0,0,0,0,0,0,0,0,0,-0.5353,-0.5345,-0.5356,-0.5367,-0.5368,-0.537,-0.5371,-0.5371,-0.5388,-0.5388,-0.5389,-0.5389,-0.5403,-0.5403,-0.5403,-0.5395,0,0,-0.5403,-0.5403,0,0,0,0,0,0,0,0,-0.5353,-0.5354,-0.5365,-0.5366,-0.5368,-0.5378,-0.5372,-0.5379,-0.5388,-0.538,-0.5389,-0.5389,-0.5394,-0.5395,-0.5397,-0.5396,-0.5397,-0.5403,-0.5403,-0.5403,-0.5404,0,0,0,0,0,0,0,-0.5352,-0.5353,-0.5362,-0.5365,-0.5367,-0.5371,-0.5373,-0.5373,-0.5385,-0.5381,-0.5382,-0.5384,-0.5395,-0.5396,-0.5397,-0.5397,-0.5403,-0.5403,-0.5404,-0.5404,-0.5391,-0.5391,0,0,0,0,0,0,-0.535,-0.5353,-0.5361,-0.5362,-0.5361,-0.5371,-0.5373,-0.5374,-0.5385,-0.5387,-0.5383,-0.5385,-0.5396,-0.5397,-0.5398,-0.539,-0.5403,-0.5404,-0.5404,-0.5392,-0.5391,-0.5391,0,0,0,0,0,0,-0.535,-0.5351,-0.5361,-0.5358,-0.536,-0.5371,-0.5372,-0.5374,-0.5376,-0.5387,-0.5389,-0.5383,-0.5396,-0.5397,-0.5396,-0.539,-0.5404,-0.5404,-0.5392,-0.5392,-0.5391,-0.5374,0,0,0,0,0,0,-0.535,-0.5351,-0.5348,-0.5358,-0.536,-0.5359,-0.5372,-0.5374,-0.5376,-0.5378,-0.5387,-0.5389,-0.5397,-0.5396,-0.5396,-0.5391,-0.5404,-0.5393,-0.5392,-0.5391,-0.5375,-0.5372,-0.5371,0,0,0,0,0,-0.5349,-0.5342,-0.5348,-0.5348,-0.5356,-0.5359,-0.536,-0.5369,-0.5376,-0.5373,-0.538,-0.5388,-0.5391,-0.5395,-0.5396,-0.5391,-0.5393,-0.5392,-0.5391,-0.5376,-0.5373,-0.5371,0,0,0,0,0,0,-0.5331,-0.5344,-0.535,-0.5346,-0.5351,-0.5362,-0.5358,-0.5366,-0.5369,-0.5371,-0.5383,-0.5384,-0.5382,-0.5386,-0.5391,-0.5384,-0.5393,-0.5393,-0.5381,-0.5379,-0.5377,-0.5375,-0.5404,0,0,0,0,0,-0.5326,-0.5327,-0.5338,-0.5334,-0.5336,-0.5347,-0.5348,-0.5355,-0.5361,-0.5363,-0.537,-0.5375,-0.5377,-0.5378,-0.5381,-0.5376,-0.5378,-0.5373,-0.537,-0.5369,-0.5368,-0.5365,-0.5363,-0.5388,-0.5388,-0.5388,0,0,-0.5317,-0.5324,-0.5324,-0.533,-0.5335,-0.5336,-0.5348,-0.5348,-0.5349,-0.5363,-0.5362,-0.5368,-0.5374,-0.5371,-0.537,-0.5375,-0.5361,-0.5368,-0.5366,-0.5366,-0.5364,-0.5362,-0.536,-0.5387,-0.5387,-0.5387,0,0,-0.53,-0.5306,-0.5303,-0.5308,-0.5315,-0.5322,-0.5322,-0.5331,-0.5335,-0.5335,-0.5346,-0.5346,-0.535,-0.5354,-0.5357,-0.5343,-0.5351,-0.5343,-0.5332,-0.533,-0.5328,-0.5326,-0.5321,-0.5319,-0.5342,-0.5342,-0.5342,0,-0.5288,-0.5289,-0.53,-0.53,-0.5302,-0.5316,-0.5313,-0.5317,-0.5325,-0.5326,-0.5332,-0.5336,-0.5342,-0.534,-0.5337,-0.5338,-0.5338,-0.5342,-0.5327,-0.5326,-0.5324,-0.532,-0.5318,-0.5341,-0.5342,-0.5342,-0.5342,0,-0.5273,-0.5274,-0.5271,-0.5278,-0.528,-0.5278,-0.529,-0.5291,-0.5298,-0.5305,-0.5304,-0.5311,-0.5316,-0.5316,-0.5323,-0.5315,-0.5318,-0.5325,-0.5334,-0.5321,-0.5317,-0.5315,-0.534,-0.534,-0.5341,-0.5341,0,0,-0.5244,-0.5258,-0.5257,-0.5261,-0.527,-0.5271,-0.527,-0.5275,-0.5275,-0.5281,-0.528,-0.5283,-0.529,-0.5293,-0.5301,-0.5299,-0.5288,-0.5307,-0.5307,-0.5303,-0.5279,-0.5273,-0.5271,-0.5293,-0.5293,-0.5293,-0.5279,0,-0.5229,-0.5228,-0.5238,-0.5234,-0.5235,-0.5249,-0.5248,-0.5254,-0.5261,-0.5262,-0.527,-0.5272,-0.5281,-0.5283,-0.5282,-0.5289,-0.5283,-0.529,-0.5293,-0.5292,-0.529,-0.5269,-0.5262,-0.5249,-0.5277,-0.5277,-0.5277,0,-0.521,-0.5215,-0.5211,-0.5222,-0.5222,-0.5221,-0.5227,-0.5228,-0.5236,-0.5241,-0.5244,-0.5253,-0.5253,-0.5263,-0.5263,-0.5268,-0.527,-0.5274,-0.5273,-0.5273,-0.5283,-0.5268,-0.5245,-0.5243,-0.5274,-0.5274,-0.5275,0,-0.5189,-0.5194,-0.5193,-0.5196,-0.5208,-0.5207,-0.5212,-0.522,-0.5222,-0.5227,-0.5228,-0.5233,-0.5235,-0.5239,-0.5249,-0.5255,-0.5248,-0.5258,-0.5252,-0.5252,-0.5249,-0.5249,-0.5226,-0.5251,-0.5251,-0.5251,-0.5251,0,-0.517,-0.5168,-0.5184,-0.5183,-0.518,-0.5193,-0.519,-0.5196,-0.5203,-0.5203,-0.5216,-0.5216,-0.523,-0.5232,-0.524,-0.5238,-0.524,-0.5244,-0.5246,-0.5242,-0.5241,-0.5243,-0.5244,-0.5251,-0.5251,-0.5251,-0.5251,0,-0.5146,-0.5157,-0.5156,-0.5168,-0.5171,-0.5168,-0.5178,-0.5178,-0.5186,-0.5186,-0.5187,-0.5199,-0.5202,-0.5213,-0.5219,-0.5224,-0.522,-0.5225,-0.5218,-0.5219,-0.5212,-0.5212,-0.5188,-0.5185,-0.5213,-0.5213,-0.5213,0,-0.5133,-0.5131,-0.5143,-0.5144,-0.5149,-0.5151,-0.5153,-0.5166,-0.5168,-0.5177,-0.5175,-0.5179,-0.5183,-0.5187,-0.5197,-0.5201,-0.5205,-0.5197,-0.5206,-0.5203,-0.5205,-0.5204,-0.5204,-0.5194,-0.5194,-0.5194,-0.5193,0,-0.5108,-0.5114,-0.5117,-0.5123,-0.5125,-0.513,-0.5136,-0.5136,-0.515,-0.5152,-0.5155,-0.5158,-0.5164,-0.5168,-0.5174,-0.518,-0.5189,-0.5191,-0.5189,-0.5185,-0.5181,-0.5183,-0.5212,-0.5191,-0.5191,-0.5191,-0.5191,-0.5191,-0.5089,-0.5088,-0.5097,-0.51,-0.5106,-0.511,-0.5111,-0.5119,-0.5122,-0.5128,-0.5135,-0.5138,-0.5146,-0.5155,-0.516,-0.5162,-0.5167,-0.5165,-0.5165,-0.5164,-0.5162,-0.5181,-0.5163,-0.5163,-0.5163,-0.5163,-0.5164,0,-0.5065,-0.5071,-0.5074,-0.5082,-0.5085,-0.5094,-0.51,-0.5102,-0.5104,-0.5111,-0.5115,-0.5119,-0.5123,-0.5133,-0.5138,-0.5138,-0.5142,-0.5138,-0.5138,-0.5139,-0.5157,-0.5158,-0.5135,-0.5135,-0.5135,-0.5135,-0.5135,-0.5135,-0.5053,-0.5052,-0.5059,-0.5061,-0.5067,-0.507,-0.5073,-0.5078,-0.5083,-0.5087,-0.5091,-0.5097,-0.5106,-0.5111,-0.5116,-0.5119,-0.512,-0.5115,-0.5119,-0.5135,-0.5138,-0.5141,-0.5141,-0.5115,-0.5115,-0.5101,-0.51,-0.51]}]]